Temperature
18 18 18 18 18 18 18 18 18 18 18 18 18 18 18 18 18 18 18 18 18 18 18 18 18 18 18 18 18 18 18 17 17 17 17 17 17 17 17 17 17 17 17
18 18 18 19 18 18 18 18 18 18 18 18 18 18 18 18 18 18 18 18 18 18 18 18 18 18 18 18 18 18 18 17 17 17 17 17 17 17 17 17 17 17 17
18 18 18 18 18 18 18 18 18 18 18 18 18 18 18 18 18 17 17 17 17 18 18 18 18 18 18 18 18 17 17 17 17 17 17 17 17 17 17 17 17 17 17
18 18 18 18 18 18 18 18 18 18 18 18 18 18 18 18 17 17 17 17 17 17 17 17 17 17 17 17 17 17 17 17 17 17 17 17 17 17 17 17 17 17 17
18 18 18 18 18 18 18 18 18 18 18 18 18 18 18 18 17 17 17 17 17 17 17 17 17 17 17 17 17 17 17 17 17 17 17 17 17 17 17 17 17 17 17
18 18 18 18 18 18 18 18 18 18 18 18 18 18 18 18 17 17 17 17 17 17 17 17 17 17 17 17 17 17 17 17 17 17 17 17 17 17 17 17 17 16 16
18 18 18 18 18 18 18 18 17 17 17 17 18 18 18 17 17 17 17 17 17 17 17 17 17 17 17 17 17 17 17 17 17 17 17 17 17 17 17 17 16 16 16
18 18 18 18 18 18 18 17 17 17 17 17 17 18 18 18 17 17 17 17 17 17 17 17 17 17 17 17 17 17 17 17 17 17 17 17 17 17 16 16 16 16 16
18 18 18 18 18 18 18 18 17 17 17 17 17 18 19 19 18 17 17 17 17 17 17 17 17 17 17 17 16 17 17 17 17 17 17 17 17 16 16 16 16 16 16
18 18 18 18 18 17 17 17 17 17 17 17 17 17 17 18 18 18 17 17 17 16 17 17 17 17 17 17 17 17 17 17 17 17 16 16 16 16 16 16 16 16 16
18 18 18 18 18 17 17 17 17 17 17 17 17 17 17 17 17 18 18 17 17 17 16 16 16 16 16 16 16 16 17 17 17 16 16 16 16 16 16 16 16 16 16
18 18 18 17 17 17 17 17 17 17 17 17 17 17 17 17 17 18 18 17 17 17 16 16 16 16 16 16 16 16 16 16 16 16 16 16 16 16 16 16 16 16 16
18 18 17 17 17 17 17 17 17 17 16 16 16 16 16 16 16 17 17 17 17 17 16 16 16 16 16 16 16 16 16 16 16 16 16 16 16 16 16 16 16 16 16
17 17 17 17 17 17 16 16 16 16 16 16 16 16 16 16 16 16 16 16 17 17 16 16 16 16 16 15 15 15 15 16 16 16 16 15 15 15 15 15 15 15 15
17 17 17 17 17 17 16 16 16 16 16 16 15 15 15 15 15 15 16 16 16 17 17 16 15 15 15 15 15 15 15 15 15 15 15 15 15 15 15 15 15 15 15
17 17 17 17 16 16 16 16 16 16 16 16 16 16 15 15 15 15 15 15 15 16 16 16 15 15 14 15 15 14 14 15 15 15 15 15 15 15 15 15 15 15 15
17 17 17 16 16 16 16 16 16 15 15 15 15 15 15 15 15 15 15 15 15 15 15 15 15 14 14 14 14 14 14 14 14 15 15 15 15 15 14 14 15 15 15
17 17 16 16 16 16 15 15 15 15 15 15 15 15 15 15 14 14 14 14 14 14 14 14 14 14 14 14 14 14 14 14 14 14 14 14 14 14 14 14 14 14 14
17 16 16 16 15 15 15 15 15 15 15 15 14 14 14 14 14 14 14 14 14 14 14 14 14 13 13 13 13 13 14 14 14 14 14 14 14 14 14 14 14 14 14
17 16 16 16 15 15 15 15 14 14 14 14 14 14 14 14 14 14 14 13 13 13 13 13 14 13 13 13 13 13 13 13 13 14 13 13 13 13 14 14 14 14 14
16 16 16 15 15 15 15 15 14 14 14 14 14 14 14 14 14 13 13 13 13 13 13 13 13 13 13 13 13 13 13 13 13 13 13 13 13 13 13 13 13 13 13
16 15 15 15 15 15 15 15 15 14 14 14 14 13 13 13 13 13 13 13 13 13 13 13 13 13 12 12 12 12 13 13 13 13 12 13 13 13 13 13 13 13 13
15 15 15 15 15 15 15 15 15 14 14 14 13 13 13 13 13 13 13 13 13 12 12 12 12 12 12 12 12 12 12 12 12 12 12 12 13 13 13 13 13 13 13
15 15 15 15 15 15 15 15 14 14 13 13 13 13 13 13 13 13 12 12 12 12 12 12 11 11 11 11 11 11 11 11 12 12 12 12 12 12 13 12 12 12 13
15 15 14 14 14 14 15 14 14 14 13 13 13 13 13 13 13 13 12 12 12 12 12 12 12 11 11 11 11 11 11 12 12 12 12 12 12 12 12 12 12 12 12
15 14 14 14 14 14 14 14 14 13 13 13 13 13 13 13 13 12 12 11 11 11 11 11 11 11 11 11 11 11 11 11 12 12 12 11 12 12 12 12 12 12 12
Wind_Speed
1 1 2 1 1 1 2 1 1 2 2 3 3 3 3 3 3 4 5 8 7 6 6 6 7 8 8 9 9 9 9 10 11 11 12 12 12 12 13 13 13 13 13
1 1 1 1 1 1 2 1 2 2 1 1 2 3 3 3 3 3 4 6 8 6 6 5 5 6 7 8 8 8 9 9 10 10 11 12 12 12 12 12 13 13 13
1 1 2 2 2 2 2 2 2 2 1 1 2 2 2 2 3 3 4 4 6 7 6 5 4 4 5 6 7 8 8 9 10 10 11 12 12 12 12 12 12 13 14
1 1 1 2 2 1 1 1 1 1 1 0 1 1 2 2 3 3 4 4 3 4 6 6 4 4 4 4 5 7 8 9 10 11 11 11 11 11 11 12 13 13 13
1 1 1 2 1 1 1 1 2 1 0 0 1 2 2 2 3 3 3 3 3 3 3 6 6 4 4 4 4 6 7 8 10 10 11 12 12 11 12 12 12 13 14
1 0 1 2 1 1 1 2 1 1 1 1 1 1 1 2 2 2 3 3 3 4 3 4 5 6 5 5 5 6 6 7 8 9 10 10 10 11 12 13 12 12 13
1 0 1 2 1 1 1 1 0 1 0 1 1 1 2 2 2 2 2 2 3 3 4 4 4 4 5 6 6 6 5 5 6 7 9 10 11 11 11 11 12 12 12
1 1 0 0 0 0 0 0 0 1 0 1 2 2 2 3 3 2 2 3 3 3 4 4 4 4 4 4 5 6 5 5 5 5 6 7 9 10 11 11 10 10 11
1 1 0 1 1 1 1 0 1 1 1 1 2 2 2 1 1 3 2 3 2 2 2 3 3 4 4 4 3 5 5 4 4 4 5 5 6 7 8 9 9 10 10
1 1 1 1 1 1 0 1 0 1 2 1 1 1 2 2 2 1 2 3 3 2 2 2 2 3 4 3 2 2 4 5 5 5 5 5 5 6 8 8 8 8 8
2 1 1 1 1 1 1 1 1 2 1 2 2 1 1 2 3 3 2 1 2 2 1 2 1 2 2 3 3 3 4 4 4 4 5 5 5 5 6 7 8 9 9
2 2 1 1 1 1 0 1 1 1 2 2 3 2 2 2 2 3 3 3 2 1 1 1 1 1 1 1 2 3 4 4 4 5 5 4 4 4 5 6 7 8 8
2 2 1 1 1 0 1 1 1 2 1 1 2 2 2 2 2 3 3 2 2 2 1 1 1 1 1 1 1 3 4 4 4 5 5 5 5 5 5 6 7 7 8
2 2 2 2 1 1 1 1 1 1 0 1 1 1 1 2 2 2 3 3 3 2 2 1 1 1 1 1 1 3 3 4 4 5 5 5 5 5 5 5 6 6 7
2 3 3 2 2 1 1 1 0 1 1 1 1 1 1 1 2 2 2 3 3 4 3 1 1 1 1 1 0 2 2 3 5 5 5 5 5 5 5 5 5 6 6
2 3 3 3 2 2 1 2 2 1 1 1 1 1 2 2 2 2 2 2 3 4 4 2 2 2 3 3 0 2 2 4 5 5 5 5 5 5 5 6 6 7 7
3 3 3 3 3 3 2 2 2 2 2 2 2 1 2 2 2 2 2 2 2 3 4 4 3 2 3 4 3 3 3 4 3 6 5 5 5 5 6 5 6 7 7
4 3 3 3 3 3 2 2 3 2 3 3 2 2 2 2 2 2 2 2 2 3 4 5 4 3 3 3 3 4 4 3 2 5 6 5 5 5 5 6 6 6 8
4 4 4 3 3 2 2 2 3 3 3 3 3 2 2 2 2 2 2 3 3 3 3 4 4 3 3 2 3 4 4 3 4 3 7 8 7 6 5 6 6 6 7
4 4 4 4 4 4 3 3 3 3 3 3 3 2 2 2 2 3 2 3 3 3 3 4 4 4 3 3 3 4 4 3 4 4 3 3 6 9 8 8 7 7 7
4 4 4 4 4 5 4 3 3 3 3 3 3 3 2 2 3 3 3 2 3 4 4 4 4 4 4 3 4 4 5 4 3 4 4 4 4 5 6 8 9 7 6
4 4 5 5 5 4 3 1 3 3 3 3 3 3 3 3 1 2 2 3 4 4 5 5 5 5 5 5 5 5 5 5 5 3 4 4 4 4 4 3 4 5 5
5 5 4 4 4 3 4 3 4 4 4 4 4 4 4 2 3 3 4 5 5 5 5 5 5 6 5 5 5 6 5 6 6 4 4 5 4 5 4 2 4 4 5
4 4 4 5 4 4 5 4 5 6 4 4 4 4 3 3 3 3 4 4 4 4 4 5 5 5 5 4 5 6 7 7 7 5 5 5 5 5 4 2 5 6 5
4 4 4 4 4 4 5 4 5 5 4 5 5 4 4 3 1 3 4 4 4 4 4 4 4 5 6 6 6 6 5 5 5 4 3 5 5 5 5 4 4 8 7
4 4 3 3 4 4 4 5 5 5 5 5 4 5 4 3 2 3 4 4 5 4 4 3 4 6 6 6 7 6 6 6 5 5 3 4 5 5 5 4 3 4 5
Wind_Direction
76 90 88 78 88 113 151 169 188 177 193 203 204 202 209 196 206 196 155 153 168 181 195 204 210 212 214 214 214 215 212 212 211 215 215 215 214 214 214 215 215 215 216
51 65 101 91 77 66 64 75 101 119 122 142 170 175 194 182 187 202 191 169 174 181 192 200 211 215 217 222 219 217 215 216 218 218 216 215 216 216 216 215 217 218 218
67 26 62 81 71 70 79 83 89 97 106 125 145 168 182 182 177 189 204 193 179 175 180 189 196 204 212 222 221 218 217 219 220 216 215 218 220 222 221 218 217 219 220
58 38 47 62 59 67 80 80 64 84 91 117 140 177 176 174 182 191 197 199 203 192 179 182 191 200 203 219 226 223 223 222 222 220 216 217 223 226 226 223 223 221 219
101 121 71 52 62 58 53 39 68 7 64 158 196 180 186 180 187 189 189 197 194 200 194 168 185 193 205 217 223 227 230 224 222 221 218 218 223 228 230 228 227 226 221
109 290 112 69 51 67 49 52 52 27 324 262 252 174 202 184 191 194 204 184 185 192 198 189 194 195 196 207 216 223 228 229 226 223 219 218 221 225 227 229 228 229 227
171 287 27 96 37 73 16 10 50 147 314 306 249 203 188 192 189 195 216 204 183 184 184 189 212 212 193 196 211 221 222 227 230 229 226 225 224 226 225 226 226 226 227
224 188 226 195 114 138 148 321 306 321 312 263 279 263 220 191 192 186 191 191 186 182 184 185 203 214 231 207 194 207 217 223 229 228 227 230 230 230 225 223 223 225 228
198 253 201 282 281 265 118 275 288 291 299 266 288 290 285 269 160 159 178 176 179 195 210 203 209 219 226 226 213 194 207 208 216 222 225 225 229 226 224 220 222 225 228
192 207 231 262 280 303 350 276 34 289 279 276 251 288 311 333 284 220 183 167 174 196 235 239 225 208 218 209 193 163 187 204 217 221 217 216 217 218 217 216 218 218 219
198 217 206 212 225 273 342 326 341 306 280 288 290 273 268 251 257 268 258 219 202 199 224 240 247 231 206 198 209 179 174 198 207 213 207 206 211 216 220 219 217 216 217
193 199 203 216 229 259 261 275 286 270 298 306 299 291 286 280 284 275 267 250 243 224 221 251 240 233 199 194 198 146 178 196 210 211 207 211 215 221 225 224 220 216 217
193 179 201 206 250 257 268 276 268 309 311 324 305 312 329 327 310 294 277 274 270 243 219 233 250 261 244 215 177 171 182 195 207 212 216 221 224 229 231 227 224 224 224
201 173 187 189 214 240 243 236 258 259 249 273 307 325 310 315 306 298 289 281 271 252 231 250 297 320 335 321 42 211 192 179 189 202 213 221 227 226 227 225 223 228 225
190 176 185 193 198 217 248 256 266 277 253 256 262 244 273 304 305 311 308 297 287 283 277 251 262 317 307 278 10 245 246 182 191 200 206 213 217 219 223 228 226 227 222
193 189 189 194 197 202 215 248 234 230 236 256 280 306 290 299 308 305 308 305 293 290 291 299 283 311 318 308 238 271 249 180 191 200 204 207 213 219 225 231 230 227 223
194 194 196 202 207 212 216 235 258 250 244 254 261 248 257 290 295 295 295 294 290 284 278 287 289 291 284 295 308 280 262 237 190 178 196 210 219 223 226 232 235 232 227
202 198 201 205 216 215 219 230 247 250 247 249 251 243 255 251 261 281 282 281 280 279 275 282 285 283 279 279 283 279 279 266 258 167 180 197 211 217 223 230 236 237 231
203 202 202 206 215 221 222 234 248 255 256 262 261 251 263 271 272 280 279 280 276 271 270 272 280 290 284 288 280 271 276 275 267 200 185 193 202 206 213 222 231 239 239
200 203 207 208 212 217 220 228 241 251 262 264 262 262 271 271 272 277 269 266 270 274 264 268 276 275 274 276 276 281 282 262 271 277 259 221 203 204 209 214 223 231 237
201 202 210 210 215 217 219 224 240 239 252 264 261 263 263 293 326 311 299 291 280 278 272 269 272 274 279 286 281 281 285 282 266 274 275 256 229 226 212 208 215 226 230
204 209 217 217 222 223 129 182 256 247 244 250 256 258 249 234 250 255 294 301 296 281 284 280 273 275 276 278 282 280 281 281 282 275 272 269 260 258 246 231 171 187 221
204 214 221 223 226 199 154 193 243 252 248 249 250 252 257 242 243 260 238 233 245 255 265 274 280 284 283 285 284 278 278 280 283 282 274 269 268 265 259 227 146 188 217
211 219 221 223 228 203 168 192 230 240 248 249 248 249 257 263 275 277 268 263 254 245 249 255 271 277 282 286 277 270 269 263 261 260 260 265 266 270 273 242 166 186 208
211 219 219 223 225 197 171 191 235 240 242 246 241 240 249 253 272 273 262 262 262 255 234 227 253 262 265 262 270 268 264 261 265 263 255 263 270 273 265 241 196 184 197
213 220 214 217 223 219 180 191 229 242 242 244 235 230 219 239 229 244 257 260 261 265 273 258 240 238 243 236 236 253 264 263 265 269 269 269 271 277 270 253 249 226 217
Height
1537 1537 1537 1536 1537 1537 1537 1537 1537 1537 1537 1537 1538 1539 1540 1541 1542 1544 1544 1545 1546 1546 1547 1548 1549 1550 1551 1552 1552 1553 1554 1554 1556 1557 1558 1559 1560 1561 1562 1563 1564 1565 1566
1538 1537 1537 1537 1537 1537 1537 1537 1537 1537 1537 1537 1537 1538 1539 1540 1541 1542 1543 1544 1544 1545 1546 1547 1548 1548 1549 1550 1551 1551 1552 1552 1554 1554 1555 1557 1558 1559 1560 1561 1562 1563 1564
1538 1538 1538 1538 1537 1537 1537 1537 1537 1537 1537 1537 1537 1537 1538 1539 1539 1540 1541 1542 1543 1543 1544 1545 1546 1547 1547 1548 1549 1550 1550 1551 1551 1552 1553 1554 1556 1557 1558 1559 1559 1561 1562
1538 1538 1538 1538 1538 1538 1537 1537 1537 1537 1537 1537 1537 1537 1537 1537 1538 1539 1540 1540 1541 1543 1543 1543 1544 1545 1545 1546 1547 1547 1548 1549 1549 1550 1551 1552 1553 1553 1554 1556 1557 1558 1559
1538 1538 1538 1538 1538 1538 1537 1537 1537 1537 1537 1536 1536 1536 1536 1537 1537 1538 1538 1539 1539 1540 1542 1541 1542 1543 1544 1544 1544 1545 1545 1546 1547 1547 1548 1549 1550 1550 1551 1552 1553 1554 1556
1538 1538 1539 1538 1538 1538 1537 1537 1536 1536 1536 1535 1536 1536 1535 1536 1536 1537 1537 1538 1538 1539 1540 1541 1541 1541 1542 1542 1542 1543 1543 1543 1544 1545 1546 1547 1547 1547 1548 1549 1550 1551 1552
1538 1537 1538 1537 1537 1537 1536 1537 1536 1536 1536 1535 1536 1535 1535 1535 1535 1535 1536 1536 1536 1537 1538 1539 1540 1540 1540 1540 1540 1541 1541 1541 1542 1542 1543 1544 1544 1545 1545 1546 1546 1547 1549
1537 1537 1536 1537 1537 1536 1536 1535 1535 1536 1536 1535 1536 1535 1535 1536 1534 1535 1534 1534 1535 1536 1536 1537 1537 1538 1539 1539 1538 1538 1539 1539 1539 1540 1540 1541 1541 1542 1542 1543 1543 1544 1546
1536 1536 1536 1536 1536 1536 1536 1535 1534 1535 1535 1535 1535 1535 1534 1533 1534 1534 1533 1533 1534 1534 1535 1536 1536 1536 1536 1536 1537 1536 1537 1537 1537 1538 1538 1538 1539 1539 1539 1540 1541 1542 1543
1535 1535 1535 1535 1535 1535 1535 1535 1534 1534 1534 1535 1534 1533 1534 1533 1533 1533 1533 1533 1533 1533 1534 1534 1534 1534 1533 1534 1534 1534 1534 1535 1535 1535 1535 1535 1536 1536 1537 1537 1538 1539 1540
1534 1534 1534 1533 1533 1534 1534 1533 1533 1533 1534 1534 1534 1533 1533 1532 1533 1532 1532 1533 1532 1532 1532 1532 1532 1532 1531 1531 1531 1531 1531 1532 1532 1532 1532 1533 1533 1534 1535 1535 1536 1537 1537
1533 1533 1533 1532 1532 1533 1532 1532 1532 1532 1532 1532 1532 1533 1532 1532 1532 1532 1531 1531 1531 1531 1530 1530 1530 1530 1529 1529 1529 1529 1529 1529 1529 1529 1530 1530 1531 1531 1532 1533 1533 1534 1534
1532 1531 1532 1531 1531 1531 1531 1531 1531 1531 1531 1530 1530 1531 1531 1531 1531 1531 1530 1530 1529 1529 1529 1529 1528 1528 1528 1527 1527 1526 1526 1526 1526 1526 1527 1527 1528 1528 1529 1529 1530 1531 1531
1530 1530 1530 1530 1530 1530 1530 1530 1530 1530 1529 1529 1529 1529 1529 1529 1529 1529 1529 1529 1528 1528 1527 1527 1527 1526 1526 1525 1525 1524 1524 1524 1524 1524 1524 1524 1524 1525 1526 1526 1526 1527 1528
1528 1528 1528 1528 1528 1528 1528 1528 1528 1528 1528 1528 1528 1528 1528 1528 1528 1527 1527 1527 1527 1526 1525 1525 1525 1524 1523 1523 1522 1522 1521 1521 1521 1521 1521 1521 1521 1522 1522 1523 1523 1524 1525
1526 1526 1526 1526 1527 1527 1527 1527 1527 1526 1526 1526 1526 1525 1525 1526 1526 1525 1525 1525 1525 1525 1524 1523 1523 1522 1521 1521 1520 1519 1519 1518 1518 1518 1518 1518 1518 1519 1519 1519 1520 1520 1521
1524 1524 1524 1524 1525 1525 1524 1525 1525 1525 1525 1524 1524 1524 1523 1523 1524 1524 1523 1523 1522 1523 1522 1521 1521 1520 1518 1517 1517 1516 1516 1515 1516 1515 1515 1515 1515 1515 1515 1516 1516 1517 1517
1521 1521 1522 1522 1523 1523 1523 1523 1523 1523 1523 1522 1522 1522 1522 1522 1521 1521 1521 1520 1520 1520 1520 1519 1518 1518 1516 1515 1514 1513 1513 1513 1513 1512 1511 1512 1512 1512 1512 1512 1512 1513 1513
1518 1519 1519 1520 1520 1521 1521 1521 1521 1521 1520 1520 1520 1520 1520 1520 1519 1519 1518 1518 1518 1518 1517 1517 1516 1515 1514 1513 1512 1511 1511 1510 1510 1510 1508 1508 1508 1508 1508 1508 1508 1509 1509
1516 1516 1517 1517 1518 1518 1519 1519 1519 1518 1518 1518 1518 1518 1518 1517 1517 1516 1516 1515 1515 1515 1514 1514 1513 1512 1511 1510 1510 1509 1508 1508 1507 1507 1506 1506 1505 1505 1505 1505 1504 1505 1505
1513 1514 1514 1515 1515 1516 1517 1517 1517 1517 1516 1516 1516 1515 1515 1515 1514 1514 1514 1513 1512 1512 1512 1511 1510 1510 1509 1508 1508 1507 1506 1505 1504 1504 1504 1503 1503 1502 1502 1501 1501 1501 1501
1510 1511 1511 1512 1513 1514 1514 1514 1514 1514 1514 1513 1513 1513 1513 1512 1511 1510 1510 1509 1509 1509 1508 1508 1507 1507 1506 1505 1505 1504 1503 1502 1501 1502 1501 1500 1500 1500 1500 1499 1498 1497 1497
1508 1508 1509 1509 1510 1510 1511 1511 1511 1511 1512 1511 1511 1510 1511 1510 1509 1508 1507 1506 1505 1505 1505 1504 1504 1503 1502 1502 1501 1501 1500 1499 1498 1498 1498 1497 1497 1497 1497 1496 1494 1494 1493
1505 1505 1506 1506 1506 1507 1508 1508 1508 1508 1509 1509 1508 1508 1507 1506 1506 1505 1505 1504 1503 1502 1501 1501 1500 1499 1499 1498 1497 1497 1496 1495 1494 1495 1495 1494 1494 1493 1493 1492 1491 1490 1490
1502 1503 1503 1503 1503 1504 1504 1505 1505 1506 1506 1505 1505 1505 1504 1503 1502 1502 1501 1500 1499 1499 1498 1497 1496 1495 1494 1494 1494 1494 1493 1493 1492 1492 1491 1491 1490 1490 1490 1489 1488 1487 1487
1499 1500 1500 1500 1500 1500 1501 1501 1501 1502 1502 1502 1501 1501 1500 1500 1499 1499 1498 1497 1496 1496 1495 1494 1493 1492 1491 1490 1490 1490 1490 1489 1488 1488 1487 1487 1487 1487 1486 1486 1485 1484 1484